User: anonymous   Login
Location: Unspecified
(0.0000°N, 0.0000°E)
Time: 11:04:09
(UTC+00:00)
Language:

CUBESAT XI-V - Orbit

View from above orbital plane
View from above orbital plane
View from above satellite
View from above satellite

Ground track
Ground track

The orbit data is extracted from the following two-line orbital elements,

1 28895U 05043F   19348.82016298  .00000112  00000-0  30338-4 0  9990
2 28895  97.9835 125.6970 0017641 143.2343 217.0074 14.63720338753681
Epoch (UTC): 14 December 2019 19:41:02
Eccentricity: 0.0017641
inclination: 97.9835°
perigee height: 669 km
apogee height: 693 km
right ascension of ascending node: 125.6970°
argument of perigee: 143.2343°
revolutions per day: 14.63720338
mean anomaly at epoch: 217.0074°
orbit number at epoch: 75368

The dashed part of the orbit path shows where the satellite is in the earth's shadow,  

DLR